Lava Hot Springs, Idaho, United States (83246)
Lat: 42.62N, Lon: 112.01W
Wx Zone: IDZ023
Local Info
Past Weather Observations for Today

NOTE: This archive is for the closest National Weather Service station to Lava Hot Springs. Information may differ from the station used for current weather conditions.

Click here for Long-term Archive

Time Weather Temperature Dewpoint Humidity Pressure Winds Precip Visibility
15:53
Partly Cloudy
57°F / 14°C 39°F / 4°C 51% 29.92 in
(1013 mb)
SSW 28.8 mph
(SSW 46 kph)
- 10SM
14:53
Mostly Cloudy
61°F / 16°C 36°F / 2°C 39% 29.92 in
(1013 mb)
SSW 27.6 mph
(SSW 44 kph)
- 10SM
13:53
Mostly Cloudy
55°F / 13°C 46°F / 8°C 72% 29.92 in
(1013 mb)
SSW 21.9 mph
(SSW 35 kph)
- 10SM
12:53
Mostly Cloudy
55°F / 13°C 48°F / 9°C 77% 29.95 in
(1014 mb)
SW 24.2 mph
(SW 39 kph)
- 10SM
11:53
Overcast
55°F / 13°C 52°F / 11°C 88% 29.95 in
(1014 mb)
SW 21.9 mph
(SW 35 kph)
- 10SM
10:53
Overcast
54°F / 12°C 50°F / 10°C 88% 29.95 in
(1014 mb)
SSW 19.6 mph
(SSW 32 kph)
0.00 in
(0.00 mm)
10SM
09:53
Overcast
54°F / 12°C 48°F / 9°C 82% 29.95 in
(1014 mb)
SSW 11.5 mph
(SSW 19 kph)
- 10SM
08:53
Overcast
54°F / 12°C 48°F / 9°C 82% 29.95 in
(1014 mb)
SSW 12.7 mph
(SSW 20 kph)
- 10SM
08:24
Mostly Cloudy
54°F / 12°C 48°F / 9°C 82% 29.95 in
(1014 mb)
SW 10.4 mph
(SW 17 kph)
- 10SM
07:53
Overcast
52°F / 11°C 48°F / 9°C 88% 29.95 in
(1014 mb)
SW 9.2 mph
(SW 15 kph)
- 10SM
06:53
Overcast
52°F / 11°C 48°F / 9°C 88% 29.95 in
(1014 mb)
SW 8.1 mph
(SW 13 kph)
- 10SM
05:53
Overcast
50°F / 10°C 50°F / 10°C 100% 29.95 in
(1014 mb)
SW 6.9 mph
(SW 11 kph)
0.00 in
(0.00 mm)
10SM
04:53
Overcast
Light Rain
50°F / 10°C 50°F / 10°C 100% 29.95 in
(1014 mb)
SW 10.4 mph
(SW 17 kph)
0.00 in
(0.00 mm)
10SM
04:03
Overcast
Light Rain
50°F / 10°C 50°F / 10°C 100% 29.95 in
(1014 mb)
SW 8.1 mph
(SW 13 kph)
0.00 in
(0.00 mm)
10SM
03:53
Overcast
Light Rain
50°F / 10°C 48°F / 9°C 94% 29.95 in
(1014 mb)
SW 9.2 mph
(SW 15 kph)
0.00 in
(0.00 mm)
10SM
03:50
Overcast
Light Rain
50°F / 10°C 48°F / 9°C 94% 29.95 in
(1014 mb)
SSE 8.1 mph
(SSE 13 kph)
0.00 in
(0.00 mm)
10SM
02:53
Overcast
50°F / 10°C 48°F / 9°C 94% 29.98 in
(1015 mb)
SW 9.2 mph
(SW 15 kph)
- 10SM
02:37
Overcast
50°F / 10°C 48°F / 9°C 94% 29.98 in
(1015 mb)
SW 9.2 mph
(SW 15 kph)
- 10SM
01:53
Overcast
50°F / 10°C 48°F / 9°C 94% 29.98 in
(1015 mb)
SW 11.5 mph
(SW 19 kph)
- 10SM
01:16
Overcast
50°F / 10°C 50°F / 10°C 100% 29.98 in
(1015 mb)
SW 9.2 mph
(SW 15 kph)
- 10SM
01:04
Overcast
50°F / 10°C 50°F / 10°C 100% 29.98 in
(1015 mb)
SW 10.4 mph
(SW 17 kph)
- 10SM
00:53
Overcast
50°F / 10°C 50°F / 10°C 100% 29.98 in
(1015 mb)
SSW 10.4 mph
(SSW 17 kph)
- 10SM
00:34
Mostly Cloudy
50°F / 10°C 50°F / 10°C 100% 29.98 in
(1015 mb)
SW 12.7 mph
(SW 20 kph)
- 10SM
Time Weather Temperature Dewpoint Humidity Pressure Winds Precip Visibility


Weather for websites

WeatherForYou.com, LLC is not responsible for any damages or problems caused by this service. Current weather conditions are obtained from the closest station including government and personal stations which may have varying degrees of accuracy. Weather forecasts are derived from the NOAA NDFD. Like all things, this site belongs to Jesus Christ... He just trusts me to maintain it. If you have any questions or comments email webmaster@weatherforyou.com

Copyright © 2014, WeatherForYou.com LLC. All rights reserved.